TimeCST,TemperatureF,Dew PointF,Humidity,Sea Level PressureIn,VisibilityMPH,Wind Direction,Wind SpeedMPH,Gust SpeedMPH,PrecipitationIn,Events,Conditions,WindDirDegrees,DateUTC
12:56 AM,28.9,19.0,67,29.77,10.0,West,12.7,21.9,N/A,,Clear,270,2013-01-07 06:56:00
1:56 AM,30.9,21.0,67,29.75,10.0,West,13.8,-,N/A,,Overcast,270,2013-01-07 07:56:00
2:56 AM,33.1,21.9,64,29.78,10.0,West,18.4,-,N/A,,Overcast,280,2013-01-07 08:56:00
3:56 AM,34.0,21.9,61,29.78,10.0,West,18.4,-,N/A,,Clear,260,2013-01-07 09:56:00
4:56 AM,30.0,19.9,66,29.79,10.0,West,16.1,-,N/A,,Clear,270,2013-01-07 10:56:00
5:56 AM,30.9,19.9,64,29.81,10.0,West,17.3,24.2,N/A,,Clear,280,2013-01-07 11:56:00
6:56 AM,30.0,19.9,66,29.82,10.0,West,12.7,-,N/A,,Clear,270,2013-01-07 12:56:00
7:56 AM,28.0,19.0,69,29.84,10.0,WSW,11.5,-,N/A,,Clear,250,2013-01-07 13:56:00
8:56 AM,28.9,19.9,69,29.84,10.0,WSW,16.1,21.9,N/A,,Clear,240,2013-01-07 14:56:00
9:56 AM,28.0,19.0,69,29.87,10.0,West,15.0,-,N/A,,Clear,260,2013-01-07 15:56:00
10:56 AM,30.0,19.0,64,29.88,10.0,West,18.4,24.2,N/A,,Clear,270,2013-01-07 16:56:00
11:56 AM,30.9,19.0,61,29.86,10.0,West,19.6,-,N/A,,Clear,270,2013-01-07 17:56:00
12:56 PM,32.0,19.9,61,29.84,10.0,West,17.3,25.3,N/A,,Clear,270,2013-01-07 18:56:00
1:56 PM,33.1,21.0,61,29.85,10.0,West,18.4,-,N/A,,Clear,270,2013-01-07 19:56:00
2:56 PM,32.0,21.0,64,29.86,10.0,West,16.1,-,N/A,,Clear,270,2013-01-07 20:56:00
3:56 PM,30.9,21.0,67,29.88,10.0,WNW,12.7,-,N/A,,Clear,290,2013-01-07 21:56:00
4:56 PM,28.0,19.0,69,29.88,10.0,NW,9.2,-,N/A,,Clear,310,2013-01-07 22:56:00
6:56 PM,21.0,16.0,81,29.91,10.0,SW,4.6,-,N/A,,Clear,220,2013-01-08 00:56:00
7:56 PM,18.0,15.1,88,29.94,10.0,WSW,5.8,-,N/A,,Clear,250,2013-01-08 01:56:00
8:56 PM,15.1,12.9,91,29.92,10.0,Calm,Calm,-,N/A,,Clear,0,2013-01-08 02:56:00
9:56 PM,12.0,9.0,88,29.93,10.0,SW,4.6,-,N/A,,Clear,220,2013-01-08 03:56:00
10:56 PM,9.0,6.1,88,29.91,10.0,SSW,4.6,-,N/A,,Clear,200,2013-01-08 04:56:00
11:56 PM,10.0,6.1,84,29.89,10.0,SSW,6.9,-,N/A,,Clear,200,2013-01-08 05:56:00